Location: Rotheul
(50.2849°N, 11.2349°E)
Time: 01:07:18
(UTC+02:00)

ISS - Pass Details

Date: 14 July 2018
Orbit: 402 x 408 km, 51.6° (Epoch: 18 July)

Event Time Altitude Azimuth Distance (km) Brightness Sun altitude
Rises 04:13:07 0° 276° (W) 2,330 -0.3 -8.6°
Reaches altitude 10° 04:15:12 10° 279° (W) 1,470 -1.3 -8.4°
Maximum altitude 04:18:29 67° 3° (N) 446 -3.4 -8.0°
Drops below altitude 10° 04:21:47 10° 87° (E) 1,472 -0.3 -7.7°
Sets 04:23:53 0° 90° (E) 2,333 0.7 -7.5°
